Regional Weather Roundup
Issued by NWS

Home | Current Version | Previous Version | Graphics & Text | Print | Product List | Glossary On
Versions: 1 2 3 4 5 6 7 8 9 10 11 12 13 14 15 16 17 18 19 20 21 22 23 24 25 26 27 28 29 30 31 32 33 34 35 36 37 38 39 40 41 42 43 44 45 46 47 48 49 50
726
ASUS43 KOAX 281002
RWRNE

WEATHER ROUNDUP FOR NEBRASKA
NATIONAL WEATHER SERVICE OMAHA NE
500 AM CDT SUN AUG 28 2016

NOTES: SATELLITE DATA IS BEING USED TO AUGMENT CLOUD COVER ABOVE
       12000 FEET.
       "FAIR" INDICATES FEW OR NO CLOUDS BELOW 12,000 FEET WITH NO
       SIGNIFICANT WEATHER AND/OR OBSTRUCTIONS TO VISIBILITY.

  * THESE STATIONS DO NOT REPORT WEATHER SUCH AS RAIN...SNOW OR FOG.

NEZ001>004-019>022-054>056-281100-
NEBRASKA PANHANDLE

CITY           SKY/WX    TMP DP  RH WIND       PRES   REMARKS
SCOTTSBLUFF    CLEAR     58  54  86 E9        30.05S
ALLIANCE       FOG       53  53 100 MISG      30.05  VSB 1
CHADRON        CLEAR     66  51  58 SW7       29.96R
SIDNEY         CLEAR     55  52  89 SW9       30.11R
$$

NEZ057>060-069>072-079>082-281100-
SOUTHWEST NEBRASKA

CITY           SKY/WX    TMP DP  RH WIND       PRES   REMARKS
NORTH PLATTE   CLOUDY    65  63  93 SE6       30.06R
IMPERIAL       PTCLDY    61  60  97 SE7       30.07R
LEXINGTON      CLOUDY    68  65  92 S8        30.06S
MCCOOK         CLOUDY    65  63  93 SE5       30.05S
OGALLALA       CLEAR     66  62  86 CALM      30.06S
$$

NEZ005>010-023>029-035>040-094-281100-
NORTH CENTRAL NEBRASKA

CITY           SKY/WX    TMP DP  RH WIND       PRES   REMARKS
AINSWORTH      CLEAR     65  64  99 S10       30.02S
BROKEN BOW     CLOUDY    65  64  97 SE6       30.05S
O`NEILL        CLEAR     65  64  93 S6        30.03F
ORD            CLEAR     64  61  90 E3        30.03S
THEDFORD       CLEAR     67  65  93 S3        30.05S
$$

NEZ041-046>049-061>064-073>077-083>087-281100-
SOUTH CENTRAL NEBRASKA

CITY           SKY/WX    TMP DP  RH WIND       PRES   REMARKS
GRAND ISLAND   PTCLDY    68  66  93 S9        30.06S
AURORA         CLOUDY    65  65 100 SE7       30.06S
HASTINGS       CLOUDY    68  66  93 S7        30.07S
HEBRON         PTCLDY    66  65  97 CALM      30.06S
HOLDREGE       CLOUDY    66  64  94 SE5       30.07S
KEARNEY *      PTCLDY    66  64  94 S7        30.06R
YORK           PTCLDY    66  64  94 SE7       30.07R
$$

NEZ011>018-030>034-042>045-281100-
NORTHEAST NEBRASKA

CITY           SKY/WX    TMP DP  RH WIND       PRES   REMARKS
NORFOLK        CLEAR     67  63  87 S12       30.05R
ALBION         CLEAR     64  62  91 E5        30.05F
BLAIR          CLEAR     69  67  92 S6        30.08R
FREMONT        CLEAR     68  66  96 SE5       30.06S
TEKAMAH        FOG       60  59  96 S3        30.06R VSB 1/4
WAYNE          CLEAR     64  63  97 CALM      30.06R FOG
$$

NEZ050>053-065>068-078-088>093-281100-
SOUTHEAST NEBRASKA

CITY           SKY/WX    TMP DP  RH WIND       PRES   REMARKS
LINCOLN        CLEAR     63  61  93 N3        30.07R
OMAHA EPPLEY   CLEAR     69  65  86 SE5       30.07R
BEATRICE       PTCLDY    67  66  96 SE3       30.07S
FALLS CITY     PTCLDY    70  69  97 E3        30.06R
NEBRASKA CITY  MOCLDY    67  67 100 S5        30.08R
PLATTSMOUTH    CLEAR     68  67  98 SE6       30.08R
$$

NEZ044-045-051>053-067-281100-
OMAHA AREA

CITY           SKY/WX    TMP DP  RH WIND       PRES   REMARKS
OMAHA EPPLEY   CLEAR     69  65  86 SE5       30.07R
BLAIR          CLEAR     69  67  92 S6        30.08R
FREMONT        CLEAR     68  66  96 SE5       30.06S
MILLARD          N/A     67  66  96 CALM      30.07R FOG
OFFUTT AFB     CLEAR     63  63 100 E5        30.07R
PLATTSMOUTH    CLEAR     68  67  98 SE6       30.08R
WAHOO          FOG       63  62  96 CALM      30.07R VSB 3/4
$$




USA.gov is the U.S. government's official web portal to all federal, state and local government web resources and services.